"Period start","avg(HW err(1)/warn(2) (#))","avg(Visibility (m))","avg(Weather code (#))","avg(Precip intensity (mm/h))","min(HW err(1)/warn(2) (#))","max(HW err(1)/warn(2) (#))","std(HW err(1)/warn(2) (#))","med(HW err(1)/warn(2) (#))","min(Visibility (m))","max(Visibility (m))","std(Visibility (m))","med(Visibility (m))","min(Weather code (#))","max(Weather code (#))","std(Weather code (#))","med(Weather code (#))","min(Precip intensity (mm/h))","max(Precip intensity (mm/h))","std(Precip intensity (mm/h))","med(Precip intensity (mm/h))"
2017-04-21 00:00:00,2,37428,0,0.00,2,2,0,2,20871,50000,8966,38782,0,0,0,0,0.00,0.00,0.00,0.00
2017-04-21 00:10:00,2,45475,0,0.00,2,2,0,2,28887,50000,6520,48982,0,0,0,0,0.00,0.00,0.00,0.00
2017-04-21 00:20:00,2,41708,0,0.00,2,2,0,2,31640,50000,6240,42135,0,0,0,0,0.00,0.00,0.00,0.00
2017-04-21 00:30:00,2,39527,0,0.00,2,2,0,2,27280,50000,7817,40774,0,0,0,0,0.00,0.00,0.00,0.00
2017-04-21 00:40:00,2,33082,0,0.00,2,2,0,2,20319,39010,5905,35020,0,0,0,0,0.00,0.00,0.00,0.00
2017-04-21 00:50:00,2,33137,0,0.00,2,2,0,2,21887,47049,8491,32602,0,0,0,0,0.00,0.00,0.00,0.00
2017-04-21 01:00:00,2,37765,0,0.00,2,2,0,2,20835,49032,8880,38356,0,0,0,0,0.00,0.00,0.00,0.00
2017-04-21 01:10:00,2,39618,0,0.00,2,2,0,2,30678,48068,6429,41210,0,0,0,0,0.00,0.00,0.00,0.00
2017-04-21 01:20:00,2,39329,0,0.00,2,2,0,2,31928,50000,5743,37988,0,0,0,0,0.00,0.00,0.00,0.00
2017-04-21 01:30:00,2,43270,0,0.00,2,2,0,2,27772,50000,7163,44826,0,0,0,0,0.00,0.00,0.00,0.00
2017-04-21 01:40:00,2,32062,0,0.00,2,2,0,2,24354,42467,6435,30050,0,0,0,0,0.00,0.00,0.00,0.00
2017-04-21 01:50:00,2,34702,0,0.00,2,2,0,2,22335,50000,12087,27579,0,0,0,0,0.00,0.00,0.00,0.00
2017-04-21 02:00:00,2,40059,0,0.00,2,2,0,2,30070,50000,5736,39940,0,0,0,0,0.00,0.00,0.00,0.00
2017-04-21 02:10:00,2,38111,0,0.00,2,2,0,2,24771,50000,7301,38474,0,0,0,0,0.00,0.00,0.00,0.00
2017-04-21 02:20:00,2,43956,0,0.00,2,2,0,2,26002,50000,7946,48422,0,0,0,0,0.00,0.00,0.00,0.00
2017-04-21 02:30:00,2,43485,0,0.00,2,2,0,2,34261,50000,5505,44966,0,0,0,0,0.00,0.00,0.00,0.00
2017-04-21 02:40:00,2,40506,0,0.00,2,2,0,2,30512,48442,4758,41696,0,0,0,0,0.00,0.00,0.00,0.00
2017-04-21 02:50:00,2,37177,0,0.00,2,2,0,2,25818,50000,9442,34368,0,0,0,0,0.00,0.00,0.00,0.00
2017-04-21 03:00:00,2,36404,0,0.00,2,2,0,2,24186,49560,9316,37244,0,0,0,0,0.00,0.00,0.00,0.00
2017-04-21 03:10:00,2,33358,0,0.00,2,2,0,2,20345,44051,7187,34988,0,0,0,0,0.00,0.00,0.00,0.00
2017-04-21 03:20:00,2,31621,0,0.00,2,2,0,2,20547,50000,10628,27176,0,0,0,0,0.00,0.00,0.00,0.00
2017-04-21 03:30:00,0,29516,0,0.00,0,0,0,0,19130,37914,6803,29640,0,0,0,0,0.00,0.00,0.00,0.00
2017-04-21 03:40:00,0,33779,0,0.00,0,0,0,0,24876,50000,7602,31878,0,0,0,0,0.00,0.00,0.00,0.00
2017-04-21 03:50:00,0,43429,0,0.00,0,0,0,0,32663,50000,6572,45549,0,0,0,0,0.00,0.00,0.00,0.00
2017-04-21 04:00:00,0,40119,0,0.00,0,0,0,0,33332,49938,5516,38534,0,0,0,0,0.00,0.00,0.00,0.00
2017-04-21 04:10:00,1,40202,0,0.00,0,2,1,2,24501,50000,8992,42820,0,0,0,0,0.00,0.00,0.00,0.00
2017-04-21 04:20:00,2,31200,0,0.00,2,2,0,2,16285,47099,10526,32160,0,0,0,0,0.00,0.00,0.00,0.00
2017-04-21 04:30:00,2,42299,0,0.00,2,2,0,2,30261,50000,7300,45300,0,0,0,0,0.00,0.00,0.00,0.00
2017-04-21 04:40:00,2,40785,0,0.00,2,2,0,2,24318,50000,9079,41276,0,0,0,0,0.00,0.00,0.00,0.00
2017-04-21 04:50:00,2,43848,0,0.00,2,2,0,2,34105,50000,5473,43558,0,0,0,0,0.00,0.00,0.00,0.00
2017-04-21 05:00:00,2,45126,0,0.00,2,2,0,2,32012,50000,5451,46902,0,0,0,0,0.00,0.00,0.00,0.00
2017-04-21 05:10:00,2,48763,0,0.00,2,2,0,2,40074,50000,2987,50000,0,0,0,0,0.00,0.00,0.00,0.00
2017-04-21 05:20:00,2,45073,0,0.00,2,2,0,2,31748,50000,6384,49544,0,0,0,0,0.00,0.00,0.00,0.00
2017-04-21 05:30:00,2,44426,0,0.00,2,2,0,2,32156,50000,5645,46035,0,0,0,0,0.00,0.00,0.00,0.00
2017-04-21 05:40:00,2,38700,0,0.00,2,2,0,2,25221,50000,6283,38846,0,0,0,0,0.00,0.00,0.00,0.00
2017-04-21 05:50:00,2,46842,0,0.00,2,2,0,2,40800,50000,3864,49203,0,0,0,0,0.00,0.00,0.00,0.00
2017-04-21 06:00:00,2,46483,0,0.00,2,2,0,2,35653,50000,4280,47499,0,0,0,0,0.00,0.00,0.00,0.00
2017-04-21 06:10:00,2,39102,0,0.00,2,2,0,2,29415,47763,5687,38366,0,0,0,0,0.00,0.00,0.00,0.00
2017-04-21 06:20:00,2,45776,0,0.00,2,2,0,2,37774,50000,4776,48070,0,0,0,0,0.00,0.00,0.00,0.00
2017-04-21 06:30:00,2,47082,0,0.00,2,2,0,2,36818,50000,4057,48814,0,0,0,0,0.00,0.00,0.00,0.00
2017-04-21 06:40:00,2,45872,0,0.00,2,2,0,2,35770,50000,4860,47436,0,0,0,0,0.00,0.00,0.00,0.00
2017-04-21 06:50:00,2,46647,0,0.00,2,2,0,2,38836,50000,3857,48274,0,0,0,0,0.00,0.00,0.00,0.00
2017-04-21 07:00:00,2,46865,0,0.00,2,2,0,2,39860,50000,3376,47475,0,0,0,0,0.00,0.00,0.00,0.00
2017-04-21 07:10:00,2,47952,0,0.00,2,2,0,2,43232,50000,2326,48794,0,0,0,0,0.00,0.00,0.00,0.00
2017-04-21 07:20:00,2,47437,0,0.00,2,2,0,2,38246,50000,3866,49657,0,0,0,0,0.00,0.00,0.00,0.00
2017-04-21 07:30:00,2,44060,0,0.00,2,2,0,2,34792,50000,4957,44679,0,0,0,0,0.00,0.00,0.00,0.00
2017-04-21 07:40:00,2,45747,0,0.00,2,2,0,2,32339,50000,5567,47818,0,0,0,0,0.00,0.00,0.00,0.00
2017-04-21 07:50:00,2,41887,0,0.00,2,2,0,2,24771,50000,8110,42615,0,0,0,0,0.00,0.00,0.00,0.00
2017-04-21 08:00:00,2,46308,0,0.00,2,2,0,2,36538,50000,4875,48686,0,0,0,0,0.00,0.00,0.00,0.00
2017-04-21 08:10:00,2,45514,0,0.00,2,2,0,2,35246,50000,5134,48008,0,0,0,0,0.00,0.00,0.00,0.00
2017-04-21 08:20:00,2,47286,0,0.00,2,2,0,2,41460,50000,3065,48564,0,0,0,0,0.00,0.00,0.00,0.00
2017-04-21 08:30:00,2,46666,0,0.00,2,2,0,2,30392,50000,5800,49956,0,0,0,0,0.00,0.00,0.00,0.00
2017-04-21 08:40:00,2,47909,0,0.00,2,2,0,2,43967,50000,2637,49974,0,0,0,0,0.00,0.00,0.00,0.00
2017-04-21 08:50:00,2,46284,0,0.00,2,2,0,2,33583,50000,5636,50000,0,0,0,0,0.00,0.00,0.00,0.00
2017-04-21 09:00:00,2,45045,0,0.00,2,2,0,2,31852,50000,5958,48193,0,0,0,0,0.00,0.00,0.00,0.00
2017-04-21 09:10:00,2,40190,0,0.00,2,2,0,2,30409,49528,6334,41145,0,0,0,0,0.00,0.00,0.00,0.00
2017-04-21 09:20:00,2,41536,0,0.00,2,2,0,2,35086,49281,4733,40368,0,0,0,0,0.00,0.00,0.00,0.00
2017-04-21 09:30:00,2,40378,0,0.00,2,2,0,2,31728,50000,5752,38494,0,0,0,0,0.00,0.00,0.00,0.00
2017-04-21 09:40:00,2,48404,0,0.00,2,2,0,2,44441,50000,2184,50000,0,0,0,0,0.00,0.00,0.00,0.00
2017-04-21 09:50:00,2,43827,0,0.00,2,2,0,2,28621,50000,6838,44858,0,0,0,0,0.00,0.00,0.00,0.00
2017-04-21 10:00:00,2,46408,0,0.00,2,2,0,2,38776,50000,3718,47893,0,0,0,0,0.00,0.00,0.00,0.00
2017-04-21 10:10:00,2,47274,0,0.00,2,2,0,2,38163,50000,3954,50000,0,0,0,0,0.00,0.00,0.00,0.00
2017-04-21 10:20:00,2,47744,0,0.00,2,2,0,2,42920,50000,2447,48266,0,0,0,0,0.00,0.00,0.00,0.00
2017-04-21 10:30:00,2,45322,0,0.00,2,2,0,2,34350,50000,5222,47146,0,0,0,0,0.00,0.00,0.00,0.00
2017-04-21 10:40:00,2,49134,0,0.00,2,2,0,2,42342,50000,2278,50000,0,0,0,0,0.00,0.00,0.00,0.00
2017-04-21 10:50:00,2,49260,0,0.00,2,2,0,2,45342,50000,1540,50000,0,0,0,0,0.00,0.00,0.00,0.00
2017-04-21 11:00:00,2,49648,0,0.00,2,2,0,2,46482,50000,1055,50000,0,0,0,0,0.00,0.00,0.00,0.00
2017-04-21 11:10:00,2,48122,0,0.00,2,2,0,2,44384,50000,2043,49051,0,0,0,0,0.00,0.00,0.00,0.00
2017-04-21 11:20:00,2,48785,0,0.00,2,2,0,2,44178,50000,1949,50000,0,0,0,0,0.00,0.00,0.00,0.00
2017-04-21 11:30:00,2,49831,0,0.00,2,2,0,2,48312,50000,506,50000,0,0,0,0,0.00,0.00,0.00,0.00
2017-04-21 11:40:00,2,40158,0,0.00,2,2,0,2,23190,50000,8959,39722,0,0,0,0,0.00,0.00,0.00,0.00
2017-04-21 11:50:00,2,30969,0,0.00,2,2,0,2,22244,44803,7564,28954,0,0,0,0,0.00,0.00,0.00,0.00
2017-04-21 12:00:00,2,38828,0,0.00,2,2,0,2,33893,50000,5087,36342,0,0,0,0,0.00,0.00,0.00,0.00
2017-04-21 12:10:00,2,49107,0,0.00,2,2,0,2,41533,50000,2528,50000,0,0,0,0,0.00,0.00,0.00,0.00
2017-04-21 12:20:00,2,42728,0,0.00,2,2,0,2,28894,50000,7937,46081,0,0,0,0,0.00,0.00,0.00,0.00
2017-04-21 12:30:00,2,25806,0,0.00,2,2,0,2,14243,46697,11687,22746,0,0,0,0,0.00,0.00,0.00,0.00
2017-04-21 12:40:00,2,18551,0,0.00,2,2,0,2,14034,30772,4744,16779,0,0,0,0,0.00,0.00,0.00,0.00
2017-04-21 12:50:00,2,36594,0,0.00,2,2,0,2,19793,50000,12246,37760,0,0,0,0,0.00,0.00,0.00,0.00
2017-04-21 13:00:00,2,47705,0,0.00,2,2,0,2,43322,49915,1827,48392,0,0,0,0,0.00,0.00,0.00,0.00
2017-04-21 13:10:00,2,46817,0,0.00,2,2,0,2,39463,50000,3696,48743,0,0,0,0,0.00,0.00,0.00,0.00
2017-04-21 13:20:00,2,45424,0,0.00,2,2,0,2,38455,50000,3918,44828,0,0,0,0,0.00,0.00,0.00,0.00
2017-04-21 13:30:00,2,42448,0,0.00,2,2,0,2,30639,50000,7836,44936,0,0,0,0,0.00,0.00,0.00,0.00
2017-04-21 13:40:00,2,49811,0,0.00,2,2,0,2,48110,50000,567,50000,0,0,0,0,0.00,0.00,0.00,0.00
2017-04-21 13:50:00,2,49770,0,0.00,2,2,0,2,48838,50000,460,50000,0,0,0,0,0.00,0.00,0.00,0.00
2017-04-21 14:00:00,2,50000,0,0.00,2,2,0,2,50000,50000,0,50000,0,0,0,0,0.00,0.00,0.00,0.00
2017-04-21 14:10:00,2,49882,0,0.00,2,2,0,2,48707,50000,372,50000,0,0,0,0,0.00,0.00,0.00,0.00
2017-04-21 14:20:00,2,50000,0,0.00,2,2,0,2,50000,50000,0,50000,0,0,0,0,0.00,0.00,0.00,0.00
2017-04-21 14:30:00,2,49936,0,0.00,2,2,0,2,49363,50000,191,50000,0,0,0,0,0.00,0.00,0.00,0.00
2017-04-21 14:40:00,2,50000,0,0.00,2,2,0,2,50000,50000,0,50000,0,0,0,0,0.00,0.00,0.00,0.00
2017-04-21 14:50:00,2,50000,0,0.00,2,2,0,2,50000,50000,0,50000,0,0,0,0,0.00,0.00,0.00,0.00
2017-04-21 15:00:00,2,50000,0,0.00,2,2,0,2,50000,50000,0,50000,0,0,0,0,0.00,0.00,0.00,0.00
2017-04-21 15:10:00,2,50000,0,0.00,2,2,0,2,50000,50000,0,50000,0,0,0,0,0.00,0.00,0.00,0.00
2017-04-21 15:20:00,2,50000,0,0.00,2,2,0,2,50000,50000,0,50000,0,0,0,0,0.00,0.00,0.00,0.00
2017-04-21 15:30:00,2,49996,0,0.00,2,2,0,2,49956,50000,13,50000,0,0,0,0,0.00,0.00,0.00,0.00
2017-04-21 15:40:00,2,50000,0,0.00,2,2,0,2,50000,50000,0,50000,0,0,0,0,0.00,0.00,0.00,0.00
2017-04-21 15:50:00,2,50000,0,0.00,2,2,0,2,50000,50000,0,50000,0,0,0,0,0.00,0.00,0.00,0.00
2017-04-21 16:00:00,2,50000,0,0.00,2,2,0,2,50000,50000,0,50000,0,0,0,0,0.00,0.00,0.00,0.00
2017-04-21 16:10:00,2,50000,0,0.00,2,2,0,2,50000,50000,0,50000,0,0,0,0,0.00,0.00,0.00,0.00
2017-04-21 16:20:00,2,49954,0,0.00,2,2,0,2,49543,50000,137,50000,0,0,0,0,0.00,0.00,0.00,0.00
2017-04-21 16:30:00,2,50000,0,0.00,2,2,0,2,50000,50000,0,50000,0,0,0,0,0.00,0.00,0.00,0.00
2017-04-21 16:40:00,2,50000,0,0.00,2,2,0,2,50000,50000,0,50000,0,0,0,0,0.00,0.00,0.00,0.00
2017-04-21 16:50:00,2,50000,0,0.00,2,2,0,2,50000,50000,0,50000,0,0,0,0,0.00,0.00,0.00,0.00
2017-04-21 17:00:00,2,50000,0,0.00,2,2,0,2,50000,50000,0,50000,0,0,0,0,0.00,0.00,0.00,0.00
2017-04-21 17:10:00,2,50000,0,0.00,2,2,0,2,50000,50000,0,50000,0,0,0,0,0.00,0.00,0.00,0.00
2017-04-21 17:20:00,2,50000,0,0.00,2,2,0,2,50000,50000,0,50000,0,0,0,0,0.00,0.00,0.00,0.00
2017-04-21 17:30:00,2,50000,0,0.00,2,2,0,2,50000,50000,0,50000,0,0,0,0,0.00,0.00,0.00,0.00
2017-04-21 17:40:00,2,50000,0,0.00,2,2,0,2,50000,50000,0,50000,0,0,0,0,0.00,0.00,0.00,0.00
2017-04-21 17:50:00,2,50000,0,0.00,2,2,0,2,50000,50000,0,50000,0,0,0,0,0.00,0.00,0.00,0.00
2017-04-21 18:00:00,2,50000,0,0.00,2,2,0,2,50000,50000,0,50000,0,0,0,0,0.00,0.00,0.00,0.00
2017-04-21 18:10:00,2,50000,0,0.00,2,2,0,2,50000,50000,0,50000,0,0,0,0,0.00,0.00,0.00,0.00
2017-04-21 18:20:00,2,50000,0,0.00,2,2,0,2,50000,50000,0,50000,0,0,0,0,0.00,0.00,0.00,0.00
2017-04-21 18:30:00,2,50000,0,0.00,2,2,0,2,50000,50000,0,50000,0,0,0,0,0.00,0.00,0.00,0.00
2017-04-21 18:40:00,2,50000,0,0.00,2,2,0,2,50000,50000,0,50000,0,0,0,0,0.00,0.00,0.00,0.00
2017-04-21 18:50:00,2,49927,0,0.00,2,2,0,2,49271,50000,219,50000,0,0,0,0,0.00,0.00,0.00,0.00
2017-04-21 19:00:00,2,49999,0,0.00,2,2,0,2,49986,50000,4,50000,0,0,0,0,0.00,0.00,0.00,0.00
2017-04-21 19:10:00,2,49837,0,0.00,2,2,0,2,49143,50000,278,50000,0,0,0,0,0.00,0.00,0.00,0.00
2017-04-21 19:20:00,2,49926,0,0.00,2,2,0,2,49259,50000,222,50000,0,0,0,0,0.00,0.00,0.00,0.00
2017-04-21 19:30:00,2,49784,0,0.00,2,2,0,2,47840,50000,648,50000,0,0,0,0,0.00,0.00,0.00,0.00
2017-04-21 19:40:00,2,49912,0,0.00,2,2,0,2,49120,50000,264,50000,0,0,0,0,0.00,0.00,0.00,0.00
2017-04-21 19:50:00,2,50000,0,0.00,2,2,0,2,50000,50000,0,50000,0,0,0,0,0.00,0.00,0.00,0.00
2017-04-21 20:00:00,2,48608,0,0.00,2,2,0,2,43183,50000,2209,50000,0,0,0,0,0.00,0.00,0.00,0.00
2017-04-21 20:10:00,2,49865,0,0.00,2,2,0,2,49106,50000,269,50000,0,0,0,0,0.00,0.00,0.00,0.00
2017-04-21 20:20:00,2,48155,0,0.00,2,2,0,2,43894,50000,2371,50000,0,0,0,0,0.00,0.00,0.00,0.00
2017-04-21 20:30:00,2,49932,0,0.00,2,2,0,2,49325,50000,202,50000,0,0,0,0,0.00,0.00,0.00,0.00
2017-04-21 20:40:00,2,49415,0,0.00,2,2,0,2,44847,50000,1529,50000,0,0,0,0,0.00,0.00,0.00,0.00
2017-04-21 20:50:00,2,47080,0,0.00,2,2,0,2,34487,50000,5855,50000,0,0,0,0,0.00,0.00,0.00,0.00
2017-04-21 21:00:00,2,49975,0,0.00,2,2,0,2,49815,50000,57,50000,0,0,0,0,0.00,0.00,0.00,0.00
2017-04-21 21:10:00,2,47344,0,0.00,2,2,0,2,42264,50000,2625,48220,0,0,0,0,0.00,0.00,0.00,0.00
2017-04-21 21:20:00,2,46209,0,0.00,2,2,0,2,35277,50000,5657,50000,0,0,0,0,0.00,0.00,0.00,0.00
2017-04-21 21:30:00,2,48649,0,0.00,2,2,0,2,43093,50000,2240,50000,0,0,0,0,0.00,0.00,0.00,0.00
2017-04-21 21:40:00,2,47281,0,0.00,2,2,0,2,37597,50000,4471,49750,0,0,0,0,0.00,0.00,0.00,0.00
2017-04-21 21:50:00,2,48760,0,0.00,2,2,0,2,43933,50000,2130,50000,0,0,0,0,0.00,0.00,0.00,0.00
2017-04-21 22:00:00,2,49791,0,0.00,2,2,0,2,48682,50000,412,50000,0,0,0,0,0.00,0.00,0.00,0.00
2017-04-21 22:10:00,2,46600,0,0.00,2,2,0,2,34896,50000,5675,49772,0,0,0,0,0.00,0.00,0.00,0.00
2017-04-21 22:20:00,2,42901,0,0.00,2,2,0,2,34576,50000,5334,42428,0,0,0,0,0.00,0.00,0.00,0.00
2017-04-21 22:30:00,2,44342,0,0.00,2,2,0,2,32495,50000,5278,44448,0,0,0,0,0.00,0.00,0.00,0.00
2017-04-21 22:40:00,2,49711,0,0.00,2,2,0,2,47107,50000,868,50000,0,0,0,0,0.00,0.00,0.00,0.00
2017-04-21 22:50:00,2,47412,0,0.00,2,2,0,2,37463,50000,3725,48813,0,0,0,0,0.00,0.00,0.00,0.00
2017-04-21 23:00:00,2,38507,0,0.00,2,2,0,2,22646,46852,7137,40488,0,0,0,0,0.00,0.00,0.00,0.00
2017-04-21 23:10:00,2,40450,0,0.00,2,2,0,2,27127,50000,7903,41980,0,0,0,0,0.00,0.00,0.00,0.00
2017-04-21 23:20:00,2,45024,0,0.00,2,2,0,2,31924,50000,5762,46576,0,0,0,0,0.00,0.00,0.00,0.00
2017-04-21 23:30:00,2,36018,0,0.00,2,2,0,2,28215,43861,5405,34962,0,0,0,0,0.00,0.00,0.00,0.00
2017-04-21 23:40:00,2,37934,0,0.00,2,2,0,2,23170,50000,9556,37784,0,0,0,0,0.00,0.00,0.00,0.00
2017-04-21 23:50:00,2,45658,0,0.00,2,2,0,2,36673,50000,4927,48112,0,0,0,0,0.00,0.00,0.00,0.00
